Regional Weather Roundup
Issued by NWS

Home | Current Version | Previous Version | Text Only | Print | Product List | Glossary Off
Versions: 1 2 3 4 5 6 7 8 9 10 11 12 13 14 15 16 17 18 19 20 21 22 23 24 25 26 27 28 29 30 31 32 33 34 35 36 37 38 39 40 41 42 43 44 45 46 47 48 49 50

000
ASUS43 KDTX 281610
RWRMI
MICHIGAN HOURLY REGIONAL WEATHER ROUNDUP
NATIONAL WEATHER SERVICE DETROIT/PONTIAC MI
1200 PM EDT FRI APR 28 2017

NOTE: "FAIR" INDICATES FEW OR NO CLOUDS BELOW 12,000 FEET WITH NO
SIGNIFICANT WEATHER AND/OR OBSTRUCTION TO VISIBILITY.

MIZ047>049-052>055-059>063-066>070-074>076-081>083-281700-
SOUTHEAST LOWER MICHIGAN

CITY           SKY/WX    TMP DP  RH WIND       PRES   REMARKS
ADRIAN         MOSUNNY   56  43  61 S10       30.00F
ALMA           PTSUNNY   53  40  61 SW14G25   29.96R
ANN ARBOR      SUNNY     57  43  59 SE8G18    29.98F
BAD AXE        PTSUNNY   55  39  55 SW17G25   29.95R
CARO           MOSUNNY   56  41  57 SW18      29.95S
DETROIT CITY   SUNNY     58  43  57 SW13      29.99F
DETROIT        PTSUNNY   59  43  55 SW16      30.00F
FLINT          MOSUNNY   58  43  57 SW15      29.96S
GROSSE ILE     SUNNY     55  44  66 S12       30.00F
HILLSDALE      CLOUDY    54  41  62 S8        29.97F
HOWELL         MOSUNNY   58  40  51 SW8       29.97S

CITY           SKY/WX    TMP DP  RH WIND       PRES   REMARKS
JACKSON        SUNNY     58  43  57 SW7       29.96F
LAMBERTVILLE   CLOUDY    57  42  55 S7        30.00S
LANSING        MOSUNNY   59  42  53 SW10      29.97R
LAPEER         FAIR      59  40  49 W16G22    29.97F
MASON          MOSUNNY   57  43  59 SW10      29.96S
MONROE         MOSUNNY   58  43  56 SW7       30.00S
MT. CLEMENS    PTSUNNY   60  44  54 S12       29.98F
PONTIAC        MOSUNNY   56  41  57 SW15      29.97S
PORT HOPE        N/A     54  38  54 SW15G23   29.93R
PORT HURON     SUNNY     57  39  51 SW10G20   29.99S
TRI CITIES     MOSUNNY   54  41  61 SW17G30   29.95S
MIDLAND        FAIR      56  37  49 SW14G28   29.93S
TROY           SUNNY     59  37  44 S9        30.00F
SAGINAW HB     MOSUNNY   54  37  54 SW14G25   29.95S
$$
MIZ043>046-050>051-056>058-064>065-071>073-077>080-281700-
SOUTHWEST LOWER MICHIGAN

CITY           SKY/WX    TMP DP  RH WIND       PRES   REMARKS
BATTLE CREEK   CLOUDY    58  44  60 SW9       29.95F
BENTON HARBOR  CLOUDY    55  44  66 W7        29.96R
BIG RAPIDS     SUNNY     49  33  54 SW12      29.92S
COLDWATER      PTSUNNY   58  42  54 SW7       29.96F
FREMONT        FAIR      50  33  51 SW14G20   29.95R
HOLLAND        MOSUNNY   52  42  69 W10       29.96F
GRAND RAPIDS   PTSUNNY   53  43  68 SW15      29.96R
IONIA          CLOUDY    54  41  61 SW10G17   29.95S
KALAMAZOO      CLOUDY    58  41  53 W6        29.95F
LUDINGTON      CLOUDY    41  33  72 SW10      29.95S
MARSHALL       MOSUNNY   58  42  55 SW9       29.94F
MOUNT PLEASANT MOSUNNY   54  37  53 SW21G28   29.93S
MUSKEGON       PTSUNNY   48  35  60 SW10      29.97S
SOUTH HAVEN    CLOUDY    55  44  67 NW7       29.95S
$$
MIZ016>042-281700-
NORTHERN LOWER MICHIGAN

CITY           SKY/WX    TMP DP  RH WIND       PRES   REMARKS
ALPENA         PTSUNNY   47  35  63 SW15      29.89R
BEAVER ISLAND  CLOUDY    37  28  71 SW16G26   29.89R WCI  27
BELLAIRE       CLOUDY    38  31  73 W7        29.93R WCI  33
CADILLAC       PTSUNNY   45  32  60 W12       29.89F
CHARLEVOIX     CLOUDY    37  31  78 SW15G24   29.94R WCI  28
FRANKFORT      CLOUDY    39  31  71 SW8G16    29.94R WCI  33
GAYLORD        CLOUDY    40  31  70 W16       29.88R WCI  31
GRAYLING       CLOUDY    46  34  64 W10G17    29.91R
HARBOR SPRINGS CLOUDY    36  31  83 W15G22    29.91R WCI  27
HOUGHTON LAKE  SUNNY     49  33  54 SW13G20   29.91R
MANISTEE       CLOUDY    42  32  67 W12G21    29.93S
OSCODA         SUNNY     56  33  42 SW18      29.89S
PELLSTON       CLOUDY    36  29  75 W15G21    29.90R WCI  27
ROGERS CITY    CLOUDY    44  34  67 W15G23    29.88R
TRAVERSE CITY  CLOUDY    42  31  64 SW12G20   29.91R
$$
MIZ007>008-015-281700-
EASTERN UPPER MICHIGAN

CITY           SKY/WX    TMP DP  RH WIND       PRES   REMARKS
KINROSS        CLOUDY    37  27  67 SW14G21   29.84S WCI  28
MACKINAC ISLAN CLOUDY    35  32  88 W15G25    29.88R WCI  25
NEWBERRY       CLOUDY    36  26  66 SW15      29.83R WCI  27
S. S. MARIE    CLOUDY    39  27  62 W16G25    29.83R WCI  30
MUNISING         N/A     37  28  70 SW9G20    29.83R WCI  30
$$
MIZ004>006-011>014-085-281700-
CENTRAL UPPER MICHIGAN

CITY           SKY/WX    TMP DP  RH WIND       PRES   REMARKS
MANISTIQUE     CLOUDY    37  26  67 SW7G20    29.86R WCI  31
ESCANABA       CLOUDY    37  26  64 SW14G21   29.88R WCI  28
MENOMINEE      CLOUDY    39  26  59 W10G17    29.92R WCI  32
SAWYER-GWINN   CLOUDY    32  27  80 W10       29.82R WCI  24
$$
MIZ001>003-009>011-084-281700-
WESTERN UPPER MICHIGAN

CITY           SKY/WX    TMP DP  RH WIND       PRES   REMARKS
IRON MOUNTAIN  CLOUDY    36  24  62 W12G20    29.84R WCI  28
HOUGHTON       CLOUDY    32  21  64 W21G30    29.76R WCI  20
COPPER HARBOR    N/A    N/A N/A N/A MISG      29.75R
IRONWOOD       CLOUDY    32  25  75 SW13      29.86R WCI  22
$$

ABBREVIATIONS USED IN REMARKS
   TC - TEMPERATURE IN CELSIUS
  WCI - WIND CHILL INDEX
   HX - HEAT INDEX
  VSB - VISIBILITY





USA.gov is the U.S. government's official web portal to all federal, state and local government web resources and services.